This is the latest recevied weather packets stored in our database for station/object N5TDX. If no packets are shown the sender has not sent any weather packets the latest 10 day(s).
| Time | Temp. | Humidity | Pressure | Rain* | Wind** | Luminosity | Snow |
|---|---|---|---|---|---|---|---|
| 1777753213 | 24.44° C | 32% | 1017.5 hPa | 0 mm | - | - | - |
| 1777752908 | 25° C | 36% | 1017.5 hPa | 0 mm | - | - | - |
| 1777752604 | 25.56° C | 33% | 1017.4 hPa | 0 mm | - | - | - |
| 1777752301 | 26.11° C | 30% | 1017.5 hPa | 0 mm | - | - | - |
| 1777751999 | 26.11° C | 32% | 1017.5 hPa | 0 mm | - | - | - |
| 1777751696 | 25.56° C | 32% | 1017.6 hPa | 0 mm | - | - | - |
| 1777751391 | 25.56° C | 30% | 1018 hPa | 0 mm | - | - | - |
| 1777751089 | 25.56° C | 32% | 1017.4 hPa | 0 mm | - | - | - |
| 1777750784 | 25.56° C | 31% | 1017.7 hPa | 0 mm | - | - | - |
| 1777750482 | 25° C | 32% | 1017.8 hPa | 0 mm | - | - | - |
| 1777750177 | 26.11° C | 29% | 1017.8 hPa | 0 mm | - | - | - |
| 1777749875 | 26.11° C | 30% | 1017.9 hPa | 0 mm | - | - | - |
| 1777749571 | 25.56° C | 30% | 1018 hPa | 0 mm | - | - | - |
| 1777749269 | 26.11° C | 30% | 1017.8 hPa | 0 mm | - | - | - |
| 1777748966 | 25.56° C | 31% | 1018 hPa | 0 mm | - | - | - |
| 1777748664 | 25.56° C | 30% | 1018.1 hPa | 0 mm | - | - | - |
| 1777748360 | 25.56° C | 32% | 1018 hPa | 0 mm | - | - | - |
| 1777748055 | 25.56° C | 31% | 1018.1 hPa | 0 mm | - | - | - |
| 1777747753 | 25.56° C | 29% | 1018 hPa | 0 mm | - | - | - |
| 1777747448 | 25.56° C | 31% | 1018.3 hPa | 0 mm | - | - | - |
| 1777747145 | 25.56° C | 30% | 1018.2 hPa | 0 mm | - | - | - |
| 1777746841 | 26.11° C | 29% | 1018.4 hPa | 0 mm | - | - | - |
| 1777746536 | 25.56° C | 32% | 1018.4 hPa | 0 mm | - | - | - |
| 1777746232 | 25° C | 32% | 1018.3 hPa | 0 mm | - | - | - |
| 1777745928 | 24.44° C | 32% | 1018.6 hPa | 0 mm | - | - | - |
* Rain latest hour (hover to see other rain measurements)
** Current wind speed in m/s (hover to see current wind gust speed)